TimeCDT,TemperatureF,Dew PointF,Humidity,Sea Level PressureIn,VisibilityMPH,Wind Direction,Wind SpeedMPH,Gust SpeedMPH,PrecipitationIn,Events,Conditions,WindDirDegrees,DateUTC
12:52 AM,75.9,62.1,62,29.63,10.0,South,4.6,-,N/A,,Clear,180,2013-07-12 05:52:00
1:52 AM,75.0,63.0,66,29.65,10.0,Calm,Calm,-,N/A,,Clear,0,2013-07-12 06:52:00
2:52 AM,75.0,62.1,64,29.65,10.0,North,4.6,-,N/A,,Clear,10,2013-07-12 07:52:00
3:52 AM,73.0,62.1,68,29.65,10.0,Calm,Calm,-,N/A,,Partly Cloudy,0,2013-07-12 08:52:00
4:52 AM,72.0,63.0,73,29.66,10.0,NE,4.6,-,N/A,,Mostly Cloudy,50,2013-07-12 09:52:00
5:52 AM,73.9,55.9,53,29.65,10.0,West,3.5,-,N/A,,Mostly Cloudy,280,2013-07-12 10:52:00
6:52 AM,73.0,57.0,57,29.67,10.0,WSW,8.1,-,N/A,,Scattered Clouds,240,2013-07-12 11:52:00
7:52 AM,73.0,57.0,57,29.69,10.0,South,5.8,-,0.00,,Partly Cloudy,190,2013-07-12 12:52:00
8:52 AM,73.9,57.9,57,29.71,10.0,Calm,Calm,-,N/A,,Overcast,0,2013-07-12 13:52:00
9:52 AM,75.0,60.1,60,29.70,10.0,SW,5.8,-,N/A,,Clear,230,2013-07-12 14:52:00
10:52 AM,81.0,57.9,45,29.70,10.0,WSW,9.2,-,N/A,,Clear,240,2013-07-12 15:52:00
11:52 AM,84.9,60.1,43,29.71,10.0,WNW,9.2,-,N/A,,Clear,290,2013-07-12 16:52:00
12:52 PM,84.9,52.0,32,29.74,10.0,NW,13.8,-,N/A,,Clear,320,2013-07-12 17:52:00
1:52 PM,87.1,52.0,30,29.75,10.0,NW,9.2,-,N/A,,Clear,320,2013-07-12 18:52:00
2:52 PM,87.1,48.0,26,29.77,10.0,WNW,9.2,-,N/A,,Clear,300,2013-07-12 19:52:00
3:52 PM,89.1,46.0,22,29.78,10.0,North,8.1,-,N/A,,Clear,350,2013-07-12 20:52:00
4:52 PM,89.1,48.0,24,29.78,10.0,WNW,10.4,18.4,N/A,,Clear,290,2013-07-12 21:52:00
5:52 PM,89.1,48.9,25,29.78,10.0,West,11.5,-,N/A,,Clear,280,2013-07-12 22:52:00
6:52 PM,88.0,51.1,28,29.79,10.0,NW,4.6,-,N/A,,Clear,310,2013-07-12 23:52:00
7:52 PM,87.1,52.0,30,29.79,10.0,North,5.8,-,N/A,,Clear,360,2013-07-13 00:52:00
8:52 PM,82.9,54.0,37,29.80,10.0,NNE,5.8,-,N/A,,Clear,20,2013-07-13 01:52:00
9:52 PM,75.9,59.0,56,29.83,10.0,NE,5.8,-,N/A,,Clear,50,2013-07-13 02:52:00
10:52 PM,68.0,57.9,70,29.87,10.0,North,4.6,-,N/A,,Clear,10,2013-07-13 03:52:00
11:52 PM,68.0,57.9,70,29.88,10.0,North,6.9,-,N/A,,Clear,10,2013-07-13 04:52:00